Voltar ao catálogo

COSMOS 1275 DEB

AtivoPO
NORAD 14740·DEBRIS·🇷🇺 Russia

Lançado Jun 4, 1981 de Plesetsk Cosmodrome

Loading…

Próximas Passagens (próximas 24 horas)

TLE

AtualizadoSource: Space-Track

Época: Sep 14, 2026, 06:24 UTC

1 14740U 81053JV  26257.26707551  .00001110  00000-0  88692-3 0  9997
2 14740  83.1296 274.8358 0101371 143.1566 346.7152 13.87695632130263

Acompanhe COSMOS 1275 DEB em tempo real com AllMySat

Download on the App Store